Mount Pocono, PA

1:07 PM EST on February 07, 2016 (GMT -0500)
Pocono Mountains Municipal

Weather History for KMPO - June, 2014

Change the Weather History Date:

Tuesday, June 3, 2014

  Actual Average Record
Temperature  
Mean Temperature 70 °F 60 °F  
Max Temperature 81 °F 70 °F 87 °F (1925)
Min Temperature 59 °F 50 °F 28 °F (1908)
Degree Days  
Heating Degree Days 0 6  
Month to date heating degree days 8 18  
Since 1 June heating degree days 8 18  
Since 1 July heating degree days 7460 7034  
Cooling Degree Days 5 1  
Month to date cooling degree days 5 3  
Year to date cooling degree days 12 22  
Since 1 June cooling degree days 5 3  
Growing Degree Days 20 (Base 50)    
Moisture  
Dew Point 60 °F    
Average Humidity 71    
Maximum Humidity 87    
Minimum Humidity 54    
Precipitation  
Precipitation 0.04 in 0.18 in 1.61 in (1997)
Month to date precipitation 0.04 0.51  
Year to date precipitation 18.80 18.01  
Sea Level Pressure  
Sea Level Pressure 29.94 in    
Wind  
Wind Speed 8 mph (West)    
Max Wind Speed 21 mph    
Max Gust Speed 26 mph    
Visibility 9 miles    
Events Rain , Thunderstorm    
T = Trace of Precipitation, MM = Missing Value Source: NWS Daily Summary

Daily Weather History Graph

Daily Weather History Graph

Search for Another Location

Airport or City:

Trip Planner

Search our weather history database for the weather conditions in past years. The results will help you decide how hot, cold, wet, or windy it might be!

Date:

Astronomy

Jun. 03, 2014 Rise Set
Actual Time 5:30 AM EDT 8:29 PM EDT
Civil Twilight 4:57 AM EDT 9:02 PM EDT
Nautical Twilight 4:15 AM EDT 9:44 PM EDT
Astronomical Twilight 3:26 AM EDT 10:33 PM EDT
Moon 10:53 AM EDT (6/3) No Moon Set
Length of Visible Light 16h 05m
Length of Day
14h 58m
Waxing Crescent, 30% of the Moon is Illuminated
Jun 3
Waxing Crescent
Jun 5
First Quarter
Jun 13
Full
Jun 19
Last Quarter
Jun 27
New

Hourly Weather History & Observations

Time (EDT) Temp. Dew Point Humidity Pressure Visibility Wind Dir Wind Speed Gust Speed Precip Events Conditions
12:53 AM 62.1 °F 55.9 °F 80% 30.04 in 10.0 mi West 5.8 mph - N/A   Clear
1:53 AM 62.1 °F 55.9 °F 80% 30.03 in 10.0 mi WNW 4.6 mph - N/A   Clear
2:53 AM 62.1 °F 55.9 °F 80% 30.02 in 10.0 mi WNW 4.6 mph - N/A   Clear
3:53 AM 60.1 °F 55.9 °F 86% 30.01 in 9.0 mi WNW 5.8 mph - N/A   Clear
4:53 AM 62.1 °F 57.0 °F 84% 30.00 in 10.0 mi WNW 5.8 mph - N/A   Clear
5:53 AM 62.1 °F 57.9 °F 86% 30.00 in 8.0 mi WNW 4.6 mph - N/A   Mostly Cloudy
6:53 AM 62.1 °F 57.9 °F 86% 30.00 in 8.0 mi West 3.5 mph - N/A   Partly Cloudy
7:53 AM 64.9 °F 60.1 °F 84% 29.99 in 10.0 mi West 4.6 mph - N/A   Partly Cloudy
8:53 AM 73.0 °F 62.1 °F 68% 29.99 in 10.0 mi West 6.9 mph - N/A   Clear
9:45 AM 75.9 °F 62.1 °F 62% 30.01 in 1.2 mi West 8.1 mph - N/A   Haze
9:53 AM 77.0 °F 62.1 °F 60% 29.97 in 10.0 mi West 11.5 mph - N/A   Clear
10:53 AM 78.1 °F 61.0 °F 56% 29.97 in 10.0 mi WSW 12.7 mph 18.4 mph N/A   Scattered Clouds
11:53 AM 75.9 °F 60.1 °F 58% 29.96 in 10.0 mi West 12.7 mph - N/A   Mostly Cloudy
12:03 PM 79.0 °F 61.0 °F 54% 29.99 in 10.0 mi SW 8.1 mph - N/A Thunderstorm Scattered Clouds
12:53 PM 79.0 °F 63.0 °F 58% 29.94 in 10.0 mi SSW 11.5 mph - N/A   Overcast
1:53 PM 77.0 °F 62.1 °F 60% 29.92 in 10.0 mi SW 11.5 mph - N/A Thunderstorm Overcast
2:53 PM 70.0 °F 64.9 °F 84% 29.92 in 10.0 mi SW 4.6 mph - 0.04 in Rain Light Rain
3:53 PM 73.9 °F 64.0 °F 71% 29.89 in 10.0 mi West 10.4 mph - 0.00 in   Partly Cloudy
4:53 PM 75.9 °F 63.0 °F 64% 29.86 in 10.0 mi WSW 10.4 mph - N/A   Clear
5:53 PM 77.0 °F 61.0 °F 58% 29.86 in 10.0 mi West 13.8 mph - N/A   Partly Cloudy
6:53 PM 75.0 °F 62.1 °F 64% 29.86 in 10.0 mi West 5.8 mph - N/A   Scattered Clouds
7:53 PM 73.9 °F 61.0 °F 64% 29.85 in 10.0 mi Variable 3.5 mph - N/A   Clear
8:53 PM 70.0 °F 64.0 °F 81% 29.83 in 10.0 mi SW 5.8 mph - N/A   Clear
9:53 PM 70.0 °F - N/A% 29.85 in 10.0 mi West 5.8 mph - N/A   Partly Cloudy
11:53 PM 64.0 °F - N/A% 29.86 in 10.0 mi NW 6.9 mph - N/A   Clear